2023/08/02 00:00:00, 0.1,23.3
2023/08/02 00:10:00, 0.1,23.4
2023/08/02 00:20:00, 0.1,23.0
2023/08/02 00:30:00, 0.1,22.9
2023/08/02 00:40:00, 0.1,22.8
2023/08/02 00:50:00, 0.1,22.7
2023/08/02 01:00:00, 0.0,22.6
2023/08/02 01:10:00, 0.2,22.5
2023/08/02 01:20:00, 0.2,22.6
2023/08/02 01:30:00,17.3,22.4
2023/08/02 01:40:00,22.4,22.5
2023/08/02 01:50:00,22.4,23.7
2023/08/02 02:00:00,22.2,24.0
2023/08/02 02:10:00,21.9,24.0
2023/08/02 02:20:00,21.8,23.1
2023/08/02 02:30:00,21.5,22.3
2023/08/02 02:40:00,21.6,22.2
2023/08/02 02:50:00,21.7,22.0
2023/08/02 03:00:00,22.0,21.8
2023/08/02 03:10:00,22.4,21.8
2023/08/02 03:20:00,22.5,21.9
2023/08/02 03:30:00,21.5,21.8
2023/08/02 03:40:00,14.7,21.9
2023/08/02 03:50:00, 8.3,21.6
2023/08/02 04:00:00,18.9,21.3
2023/08/02 04:10:00,20.6,21.5
2023/08/02 04:20:00,20.6,21.4
2023/08/02 04:30:00,20.2,21.2
2023/08/02 04:40:00,20.1,21.2
2023/08/02 04:50:00,20.0,21.3
2023/08/02 05:00:00,20.1,21.5
2023/08/02 05:10:00,20.3,21.5
2023/08/02 05:20:00,20.6,21.7
2023/08/02 05:30:00,20.8,21.7
2023/08/02 05:40:00,20.6,21.6
2023/08/02 05:50:00,20.5,21.7
2023/08/02 06:00:00,20.2,21.8
2023/08/02 06:10:00,19.7,21.8
2023/08/02 06:20:00,19.3,21.9
2023/08/02 06:30:00,18.8,22.1
2023/08/02 06:40:00,18.5,22.2
2023/08/02 06:50:00,18.2,23.1
2023/08/02 07:00:00,18.0,23.7
2023/08/02 07:10:00,17.5,24.0
2023/08/02 07:20:00,16.8,24.3
2023/08/02 07:30:00,17.2,25.3
2023/08/02 07:40:00,17.1,26.4
2023/08/02 07:50:00,17.0,27.6
2023/08/02 08:00:00,17.0,28.4
2023/08/02 08:10:00,16.8,28.5
2023/08/02 08:20:00,16.6,28.9
2023/08/02 08:30:00,16.6,29.6
2023/08/02 08:40:00,17.1,29.2
2023/08/02 08:50:00,17.4,29.4
2023/08/02 09:00:00,17.9,29.3
2023/08/02 09:10:00,---,30.1
2023/08/02 09:20:00,---,30.8
2023/08/02 09:30:00, 0.4,30.3
2023/08/02 09:40:00, 0.1,31.2
2023/08/02 09:50:00, 0.1,31.5
2023/08/02 10:00:00, 0.0,31.3
2023/08/02 10:10:00, 0.0,31.4
2023/08/02 10:20:00, 0.0,31.8
2023/08/02 10:30:00, 0.0,32.8
2023/08/02 10:40:00, 0.1,32.9
2023/08/02 10:50:00, 0.1,32.8
2023/08/02 11:00:00, 0.1,33.5
2023/08/02 11:10:00,---,33.4
2023/08/02 11:20:00, 0.1,34.2
2023/08/02 11:30:00, 0.1,34.1
2023/08/02 11:40:00, 0.1,34.7
2023/08/02 11:50:00, 0.0,35.0
2023/08/02 12:00:00,13.2,34.6
2023/08/02 12:10:00,11.8,34.6
2023/08/02 12:20:00,10.8,34.9
2023/08/02 12:30:00,19.5,34.9
2023/08/02 12:40:00,19.0,34.7
2023/08/02 12:50:00,18.7,34.2
2023/08/02 13:00:00,18.2,35.7
2023/08/02 13:10:00,18.2,35.0
2023/08/02 13:20:00,18.4,36.0
2023/08/02 13:30:00,19.4,34.9
2023/08/02 13:40:00,19.7,35.7
2023/08/02 13:50:00,18.9,36.0
2023/08/02 14:00:00,18.5,36.4
2023/08/02 14:10:00,18.8,36.1
2023/08/02 14:20:00,18.8,37.0
2023/08/02 14:30:00,18.4,35.8
2023/08/02 14:40:00,18.4,36.1
2023/08/02 14:50:00,---,36.7
2023/08/02 15:00:00,19.3,37.0
2023/08/02 15:10:00,19.6,36.3
2023/08/02 15:20:00,20.0,34.8
2023/08/02 15:30:00,19.2,36.0
2023/08/02 15:40:00,18.9,36.0
2023/08/02 15:50:00,19.2,36.4
2023/08/02 16:00:00,19.2,35.8
2023/08/02 16:10:00,18.9,34.3
2023/08/02 16:20:00,18.9,34.3
2023/08/02 16:30:00,18.0,33.9
2023/08/02 16:40:00,17.3,34.3
2023/08/02 16:50:00,17.3,32.8
2023/08/02 17:00:00,16.3,32.0
2023/08/02 17:10:00,16.3,32.0
2023/08/02 17:20:00,16.8,33.4
2023/08/02 17:30:00,17.4,32.0
2023/08/02 17:40:00,17.6,31.4
2023/08/02 17:50:00,17.6,31.3
2023/08/02 18:00:00,17.4,30.4
2023/08/02 18:10:00,16.0,29.8
2023/08/02 18:20:00,14.5,29.4
2023/08/02 18:30:00,13.7,29.0
2023/08/02 18:40:00, 9.8,28.6
2023/08/02 18:50:00, 8.9,28.3
2023/08/02 19:00:00,10.7,28.2
2023/08/02 19:10:00,12.3,27.6
2023/08/02 19:20:00,13.7,27.5
2023/08/02 19:30:00,13.3,27.2
2023/08/02 19:40:00,12.1,26.9
2023/08/02 19:50:00, 5.9,26.9
2023/08/02 20:00:00, 0.3,26.9
2023/08/02 20:10:00, 0.1,26.7
2023/08/02 20:20:00, 0.0,26.9
2023/08/02 20:30:00, 0.0,26.4
2023/08/02 20:40:00, 0.0,26.0
2023/08/02 20:50:00, 0.0,25.9
2023/08/02 21:00:00, 0.1,25.9
2023/08/02 21:10:00, 0.1,26.0
2023/08/02 21:20:00, 0.1,25.8
2023/08/02 21:30:00, 0.1,26.2
2023/08/02 21:40:00, 0.1,27.0
2023/08/02 21:50:00, 0.1,27.3
2023/08/02 22:00:00, 0.1,27.2
2023/08/02 22:10:00, 0.1,26.8
2023/08/02 22:20:00, 0.1,26.9
2023/08/02 22:30:00, 0.1,26.9
2023/08/02 22:40:00, 0.1,26.7
2023/08/02 22:50:00, 0.1,26.5
2023/08/02 23:00:00, 0.1,26.9
2023/08/02 23:10:00, 0.1,26.6
2023/08/02 23:20:00, 0.1,26.8
2023/08/02 23:30:00, 0.1,26.5
2023/08/02 23:40:00, 0.1,26.7
2023/08/02 23:50:00, 0.1,26.7
